Location: Bay Harbour
(38.2612°N, 75.2555°W)
Time: 01:09:49
(UTC+00:00)

IRS-1C Rocket - Pass Details

Date: 29 October 2020
Orbit: 800 x 805 km, 99.0° (Epoch: 02 December)

Event Time Altitude Azimuth Distance (km) Brightness Sun altitude
Rises 23:29:27 0° 172° (S) 3,298 7.2 -17.2°
Reaches altitude 10° 23:31:47 10° 175° (S) 2,373 6.5 -17.7°
Maximum altitude 23:36:59 67° 257° (WSW) 871 4.5 -18.7°
Drops below altitude 10° 23:42:15 10° 341° (NNW) 2,391 6.8 -19.7°
Sets 23:44:37 0° 344° (NNW) 3,327 7.5 -20.2°
